Temp
8 8 8 8 9 9 10 12 12 12 12 12 12 11 11 11 10 10 10 10 10 10 9 9 8 8 9 9 10 10 10 10 10 9 9 8 8 8 8 8 7 7 7 7 7 7 7 7 8
8 7 7 7 8 9 10 13 12 12 12 12 12 11 11 10 10 10 10 10 10 10 10 10 9 9 9 10 10 10 10 10 9 9 9 8 8 8 8 7 7 7 7 7 7 7 7 7 8
7 7 7 7 8 9 11 12 13 12 12 12 12 11 11 10 10 10 10 11 10 10 10 10 9 9 10 10 10 10 10 10 9 9 8 8 8 8 8 7 7 7 7 7 7 8 7 7 7
6 6 7 7 8 10 11 11 12 12 12 12 12 11 10 11 10 10 10 10 10 10 10 10 10 10 10 10 10 10 10 9 9 8 8 8 8 8 7 7 7 7 7 7 8 8 8 8 8
4 5 6 6 8 10 10 10 12 12 12 12 11 11 11 11 10 10 10 10 10 10 10 10 10 10 10 10 10 9 9 9 8 8 8 8 8 8 7 7 7 7 7 7 7 7 7 7 7
5 3 5 5 8 10 10 9 11 11 11 11 11 11 11 10 10 9 10 11 10 9 10 10 10 10 10 10 9 9 9 9 8 8 8 8 8 7 7 7 7 7 7 7 7 7 7 7 7
4 3 4 5 7 9 9 10 10 11 11 11 11 11 10 10 10 10 11 11 10 9 9 9 10 9 9 9 9 9 9 8 8 8 8 8 8 7 7 7 7 7 7 7 7 7 7 7 7
3 3 3 4 7 7 8 9 10 10 10 10 10 10 11 10 10 10 10 10 9 9 9 9 9 9 9 9 9 9 8 8 8 8 8 8 7 7 7 7 7 7 7 7 7 7 7 7 7
2 1 2 2 5 7 8 9 9 8 9 10 10 10 10 10 10 10 10 9 9 9 9 9 9 9 9 9 9 8 8 8 8 8 8 7 7 7 7 7 7 7 7 7 7 7 7 7 7
-0 1 1 2 2 5 7 8 8 8 8 8 9 9 9 10 10 9 9 9 9 9 9 9 8 9 8 8 8 8 8 8 8 8 7 7 7 7 7 6 6 6 7 7 7 7 7 7 7
1 1 1 1 2 4 5 6 7 7 7 7 9 9 9 9 9 9 9 8 8 8 9 9 8 8 8 8 8 8 7 7 7 7 7 6 6 6 6 6 6 6 6 6 6 6 6 7 7
0 1 1 1 2 4 5 5 6 6 6 7 7 8 8 8 9 9 9 9 8 8 8 9 8 8 8 8 7 7 7 7 7 7 7 6 6 6 6 6 6 6 6 6 6 6 6 6 6
1 1 1 1 1 2 3 4 4 6 6 6 7 7 8 8 8 8 9 8 8 8 8 8 8 8 7 7 7 7 7 6 6 6 6 6 5 5 5 5 5 5 6 6 6 6 6 6 6
0 1 1 1 2 0 2 3 1 4 4 5 6 7 7 8 8 8 8 8 8 8 8 8 7 7 7 7 7 7 6 6 6 5 5 5 5 5 5 5 5 5 5 5 5 5 5 5 5
0 0 0 1 1 0 -0 2 3 4 3 5 5 6 7 7 8 8 8 8 8 8 7 7 7 7 7 7 6 6 6 5 5 5 5 4 4 4 4 4 4 5 5 5 4 4 4 5 5
-0 1 0 1 2 1 1 2 3 2 2 4 5 6 6 7 7 8 8 8 8 8 7 7 6 6 6 6 6 6 5 5 5 4 4 4 4 4 4 4 4 4 4 4 4 4 4 4 4
-1 0 1 1 2 2 1 1 3 4 3 4 5 5 6 7 7 7 8 8 7 7 7 6 6 6 6 5 6 5 5 4 4 4 4 3 3 3 4 4 4 4 3 3 4 4 4 4 4
1 1 1 1 2 1 2 2 3 3 4 5 5 5 6 7 7 7 7 7 7 7 7 6 6 6 6 5 5 5 4 4 4 3 3 3 3 3 3 3 3 3 3 3 3 3 3 4 4
-0 0 1 1 2 2 2 3 2 3 5 3 4 5 6 7 7 7 7 7 7 7 7 6 6 6 5 5 5 4 4 3 3 3 3 3 3 3 2 2 2 2 2 3 3 3 2 2 3
-1 -0 1 2 2 2 3 4 3 4 4 6 6 6 6 6 6 7 7 7 7 6 6 6 6 5 5 5 4 4 3 3 3 3 3 2 2 2 2 2 2 2 2 2 2 2 2 2 2
-2 -0 1 1 1 1 2 2 2 2 2 4 4 6 6 7 7 7 7 7 7 6 6 6 5 5 5 5 4 4 3 2 3 2 2 2 2 2 2 1 1 2 2 1 1 2 2 2 1
-1 -0 1 -0 -0 -0 1 1 3 3 4 4 5 6 8 8 8 7 7 7 7 6 5 5 5 4 5 4 4 2 2 2 2 2 1 1 1 1 1 1 1 1 1 1 1 1 0 0 0
-1 -0 -1 -1 -0 -1 1 1 4 5 4 5 6 6 8 8 8 7 8 7 6 6 5 5 4 4 4 4 3 3 2 2 1 1 1 1 1 1 1 1 0 0 0 0 -0 -0 -1 -1 -1
-1 -1 -2 -1 -1 -3 0 1 4 6 6 6 6 6 8 8 8 7 7 6 6 5 5 4 4 4 4 4 4 3 2 1 1 1 1 1 0 0 0 -0 -0 -0 -0 -0 -1 -1 -1 -1 -1
-2 -2 -3 -2 -3 -2 2 1 4 6 7 7 8 8 9 8 8 8 7 7 6 5 5 4 4 3 3 3 3 2 1 1 1 1 1 0 0 -0 -0 -1 -1 -1 -1 -1 -1 -2 -2 -2 -2
-1 -2 -1 -2 -3 -3 2 2 3 6 6 8 8 9 9 8 8 8 7 6 6 5 5 4 3 3 3 3 2 1 1 1 1 0 0 0 -0 -1 -1 -1 -1 -1 -1 -2 -2 -2 -2 -2 -2
-2 -3 1 -1 0 0 3 4 4 6 6 8 8 9 8 8 8 7 7 6 5 5 4 3 3 3 2 2 1 1 1 0 0 -0 -0 -1 -1 -2 -2 -2 -2 -2 -2 -2 -2 -2 -2 -2 -3
-1 0 -2 -3 -2 1 2 4 6 7 7 7 8 9 8 8 7 7 6 5 5 4 3 3 2 2 1 1 1 1 0 -0 -0 -0 -1 -1 -2 -2 -2 -2 -2 -2 -3 -3 -3 -3 -3 -3 -3
-1 -2 -2 -2 -1 -1 -2 3 6 7 8 8 8 9 8 8 8 6 5 4 4 3 3 2 2 2 1 1 1 0 -0 -0 -1 -1 -1 -2 -2 -2 -3 -3 -3 -3 -3 -3 -3 -3 -3 -3 -4
-0 0 0 -0 -1 -0 1 3 6 8 7 6 7 8 8 6 6 6 4 3 3 3 2 2 1 1 1 0 0 -0 -1 -1 -1 -1 -2 -2 -3 -3 -3 -3 -3 -3 -4 -4 -3 -3 -4 -4 -5
Height
3162 3163 3165 3166 3170 3164 3160 3161 3163 3166 3165 3165 3167 3170 3172 3172 3172 3175 3171 3172 3173 3175 3177 3179 3181 3182 3183 3183 3183 3182 3182 3183 3183 3182 3181 3180 3179 3178 3176 3175 3174 3173 3172 3172 3171 3170 3170 3169 3168
3156 3160 3162 3162 3162 3158 3156 3158 3160 3164 3164 3163 3165 3167 3170 3171 3170 3169 3171 3171 3173 3175 3176 3178 3179 3181 3182 3182 3182 3181 3182 3182 3182 3181 3180 3179 3178 3176 3175 3173 3173 3172 3171 3170 3169 3169 3168 3167 3166
3149 3154 3159 3158 3155 3153 3154 3156 3157 3159 3161 3161 3163 3164 3167 3168 3169 3169 3169 3170 3173 3173 3175 3177 3178 3179 3180 3181 3181 3181 3181 3181 3181 3180 3179 3178 3176 3174 3173 3172 3171 3170 3170 3169 3169 3168 3167 3166 3165
3143 3149 3154 3150 3148 3151 3152 3153 3154 3154 3157 3159 3159 3163 3165 3166 3167 3168 3168 3169 3171 3172 3174 3175 3177 3178 3179 3180 3180 3180 3181 3180 3180 3179 3178 3177 3175 3174 3172 3171 3171 3170 3170 3169 3168 3167 3166 3165 3164
3138 3142 3144 3143 3145 3149 3153 3152 3153 3154 3155 3156 3157 3158 3161 3164 3165 3164 3165 3168 3169 3171 3173 3174 3175 3176 3178 3178 3179 3179 3179 3179 3179 3178 3177 3175 3174 3173 3171 3170 3170 3169 3169 3169 3168 3167 3166 3165 3164
3130 3134 3135 3136 3141 3147 3149 3152 3151 3151 3151 3152 3155 3156 3158 3160 3162 3163 3162 3165 3168 3169 3171 3172 3173 3175 3176 3177 3177 3178 3178 3178 3178 3177 3176 3174 3173 3172 3171 3170 3170 3169 3169 3168 3167 3167 3166 3165 3164
3123 3126 3128 3134 3138 3143 3147 3148 3147 3148 3148 3148 3151 3153 3156 3157 3159 3159 3160 3163 3167 3167 3169 3171 3172 3173 3174 3175 3176 3177 3177 3177 3176 3175 3174 3173 3172 3171 3171 3170 3170 3169 3169 3168 3167 3166 3166 3165 3164
3117 3121 3123 3129 3137 3139 3141 3143 3141 3141 3143 3146 3148 3150 3152 3155 3156 3157 3157 3160 3164 3166 3167 3169 3170 3171 3172 3173 3174 3175 3175 3176 3175 3174 3173 3172 3171 3170 3170 3170 3169 3169 3169 3168 3167 3166 3165 3164 3163
3111 3115 3112 3118 3126 3133 3135 3136 3136 3136 3137 3140 3144 3148 3151 3152 3154 3155 3156 3158 3159 3164 3165 3167 3168 3169 3171 3172 3173 3174 3174 3174 3174 3173 3172 3171 3170 3170 3169 3169 3169 3169 3168 3168 3167 3166 3165 3163 3162
3105 3107 3107 3112 3119 3125 3128 3130 3132 3134 3133 3137 3141 3146 3148 3149 3151 3153 3155 3157 3157 3159 3163 3166 3166 3167 3169 3170 3171 3172 3172 3173 3172 3172 3171 3171 3170 3169 3169 3169 3169 3168 3168 3167 3166 3165 3164 3163 3162
3101 3102 3105 3110 3109 3121 3121 3124 3125 3129 3131 3135 3139 3143 3145 3147 3148 3150 3152 3154 3156 3157 3158 3162 3165 3164 3167 3168 3169 3170 3171 3171 3171 3171 3170 3170 3170 3169 3169 3169 3169 3168 3167 3167 3166 3165 3164 3163 3162
3096 3100 3104 3109 3107 3110 3118 3119 3121 3123 3129 3132 3136 3138 3141 3144 3145 3147 3149 3152 3154 3155 3156 3158 3161 3163 3164 3165 3167 3168 3169 3169 3169 3168 3169 3169 3169 3169 3169 3169 3169 3168 3167 3167 3166 3165 3163 3162 3160
3092 3096 3098 3103 3108 3112 3110 3114 3115 3119 3123 3128 3132 3134 3137 3140 3141 3143 3146 3150 3152 3153 3154 3156 3158 3161 3162 3164 3164 3166 3167 3167 3167 3167 3167 3168 3168 3168 3168 3168 3167 3167 3166 3166 3165 3163 3162 3160 3159
3089 3092 3095 3096 3096 3105 3113 3110 3115 3117 3120 3125 3128 3132 3134 3136 3138 3140 3143 3146 3149 3150 3151 3153 3155 3158 3159 3161 3162 3164 3165 3165 3165 3165 3166 3167 3167 3167 3167 3167 3167 3166 3165 3164 3164 3163 3161 3159 3157
3084 3087 3088 3092 3098 3101 3108 3107 3110 3112 3115 3121 3125 3128 3130 3132 3134 3137 3140 3143 3145 3147 3149 3150 3152 3154 3156 3158 3160 3161 3163 3163 3163 3164 3164 3165 3165 3165 3165 3165 3165 3164 3163 3162 3161 3160 3159 3157 3155
3079 3083 3082 3083 3089 3093 3099 3095 3102 3112 3112 3117 3120 3123 3126 3129 3131 3133 3135 3138 3141 3143 3146 3147 3149 3151 3153 3155 3157 3159 3160 3161 3162 3162 3162 3163 3163 3163 3163 3163 3163 3162 3161 3160 3159 3159 3157 3156 3153
3075 3076 3077 3081 3083 3086 3088 3087 3095 3108 3109 3112 3114 3118 3121 3123 3126 3129 3131 3134 3138 3140 3142 3144 3146 3148 3150 3152 3153 3156 3157 3159 3159 3159 3160 3160 3161 3161 3161 3161 3160 3159 3158 3157 3156 3155 3154 3152 3151
3060 3064 3067 3071 3074 3078 3082 3085 3087 3095 3104 3106 3108 3112 3115 3118 3122 3125 3128 3130 3133 3136 3139 3140 3143 3145 3147 3149 3150 3153 3154 3156 3156 3157 3157 3157 3158 3159 3158 3158 3157 3156 3155 3153 3152 3150 3148 3146 3145
3065 3065 3067 3069 3072 3074 3073 3079 3084 3092 3094 3101 3102 3105 3109 3113 3117 3119 3122 3125 3128 3131 3134 3136 3139 3141 3144 3145 3147 3149 3151 3152 3152 3153 3154 3154 3155 3155 3155 3154 3153 3152 3151 3150 3148 3146 3144 3141 3139
3063 3065 3065 3067 3066 3068 3069 3072 3082 3078 3082 3093 3096 3099 3103 3107 3109 3112 3116 3119 3123 3127 3130 3132 3134 3137 3139 3141 3143 3145 3147 3148 3148 3150 3150 3151 3151 3151 3151 3150 3149 3148 3147 3145 3143 3141 3139 3136 3131
3055 3060 3062 3064 3065 3066 3068 3068 3070 3073 3079 3084 3089 3093 3096 3100 3103 3104 3109 3113 3117 3121 3124 3127 3130 3132 3134 3136 3139 3141 3142 3143 3145 3146 3147 3147 3148 3148 3147 3147 3145 3143 3142 3140 3138 3135 3132 3131 3127
3048 3053 3057 3061 3062 3063 3064 3059 3055 3064 3068 3073 3080 3084 3087 3091 3095 3097 3101 3107 3110 3116 3119 3122 3125 3127 3129 3133 3135 3137 3137 3139 3141 3142 3143 3143 3143 3144 3143 3142 3140 3138 3137 3135 3132 3129 3125 3122 3121
3038 3047 3052 3055 3057 3060 3058 3063 3050 3056 3058 3059 3067 3073 3078 3083 3088 3091 3095 3101 3106 3109 3114 3117 3120 3123 3124 3128 3130 3131 3133 3135 3136 3137 3138 3139 3140 3139 3138 3137 3135 3133 3131 3129 3126 3123 3120 3116 3112
3042 3044 3046 3052 3053 3055 3048 3050 3040 3039 3040 3051 3059 3066 3071 3076 3080 3083 3089 3094 3099 3102 3107 3112 3115 3118 3119 3122 3124 3126 3129 3130 3132 3133 3134 3134 3135 3135 3133 3132 3130 3127 3125 3123 3120 3116 3112 3109 3104
3035 3038 3044 3047 3050 3039 3039 3046 3028 3037 3041 3046 3052 3058 3062 3067 3070 3075 3081 3085 3090 3095 3102 3106 3110 3113 3115 3117 3119 3121 3124 3125 3127 3128 3129 3129 3130 3129 3129 3126 3124 3121 3119 3116 3113 3109 3105 3101 3097
3021 3029 3032 3033 3037 3032 3034 3029 3022 3031 3033 3041 3047 3051 3055 3058 3061 3067 3073 3079 3084 3091 3096 3101 3105 3108 3111 3113 3114 3117 3119 3121 3122 3123 3124 3124 3123 3123 3122 3119 3117 3115 3112 3109 3105 3101 3096 3092 3087
3019 3022 3026 3027 3028 3027 3022 3021 3020 3024 3029 3031 3036 3039 3043 3049 3053 3058 3065 3073 3079 3085 3091 3096 3100 3103 3106 3108 3110 3112 3114 3116 3117 3118 3118 3118 3117 3116 3115 3113 3111 3108 3105 3100 3096 3091 3086 3081 3077
3011 3018 3024 3025 3026 3020 3013 3013 3014 3015 3021 3026 3027 3032 3037 3042 3047 3051 3059 3067 3074 3080 3085 3089 3094 3098 3101 3103 3105 3107 3110 3110 3111 3112 3112 3112 3111 3110 3108 3106 3104 3100 3096 3091 3086 3081 3077 3071 3066
3003 3007 3015 3020 3021 3019 3018 3008 3007 3013 3015 3017 3020 3025 3030 3036 3041 3045 3053 3061 3067 3073 3078 3083 3088 3092 3095 3098 3100 3102 3105 3106 3106 3107 3107 3106 3105 3103 3102 3099 3096 3091 3087 3083 3077 3071 3066 3060 3055
2998 2998 2999 3004 3010 3010 3014 3007 3005 3007 3010 3013 3016 3020 3024 3031 3037 3041 3047 3054 3059 3064 3072 3077 3083 3087 3090 3093 3095 3097 3099 3100 3101 3101 3100 3099 3098 3096 3094 3091 3087 3082 3078 3073 3066 3060 3055 3049 3044
Wind_Speed
29 23 18 14 10 11 18 24 18 6 18 18 16 15 17 12 18 6 1 3 8 9 12 12 9 6 3 3 3 2 1 2 2 3 4 5 7 9 10 9 9 8 8 8 9 9 9 9 9
34 28 21 15 14 17 21 20 23 15 19 19 18 16 18 19 18 18 7 6 6 9 10 11 9 5 3 3 1 0 1 2 2 3 5 8 9 10 9 8 7 7 7 7 8 8 7 7 6
36 29 25 14 20 25 17 11 21 23 20 19 20 19 17 20 22 20 16 12 6 8 10 10 8 6 4 3 1 1 1 1 2 4 7 9 10 9 8 8 8 8 9 9 8 8 8 8 8
33 29 27 25 24 27 22 13 9 28 23 19 19 16 19 14 19 21 18 12 8 8 11 9 8 6 4 4 3 2 1 0 2 5 8 10 9 7 8 8 9 9 9 9 8 8 9 9 9
38 26 28 28 34 25 13 5 19 19 20 17 18 21 16 15 14 15 16 13 11 10 12 10 8 6 5 5 4 3 2 0 3 7 8 8 7 6 7 7 7 8 8 8 8 8 8 8 9
37 33 25 34 37 29 21 15 17 18 19 19 20 20 17 13 15 15 16 14 8 11 11 9 8 6 6 6 6 4 2 1 4 7 7 7 6 6 7 7 7 8 8 8 8 8 9 10 10
33 44 29 32 32 30 18 18 25 24 23 22 22 20 19 16 15 16 15 12 9 12 11 9 8 7 8 7 7 5 3 2 4 6 7 6 6 7 7 7 7 7 7 8 8 9 9 9 9
33 36 33 27 23 17 19 24 23 17 19 17 23 23 22 17 16 16 15 13 11 13 12 10 8 9 9 9 8 6 3 3 4 6 6 5 6 6 7 6 7 7 7 7 8 8 8 9 9
30 29 43 20 17 16 22 24 21 24 24 23 22 22 19 18 16 16 16 14 13 14 14 10 9 10 10 9 8 6 3 3 5 6 5 5 5 5 5 6 6 7 7 8 9 9 10 11 11
27 30 36 48 9 17 20 24 21 27 28 26 22 19 15 16 16 16 15 15 15 15 14 11 11 11 11 10 8 6 4 4 5 5 4 3 4 4 5 6 7 8 10 10 11 12 12 12 11
31 33 23 33 32 14 19 22 24 19 23 23 19 17 18 16 15 15 16 17 15 16 14 12 13 13 11 10 9 7 5 4 4 4 3 3 4 4 5 6 7 8 10 11 12 12 12 12 13
25 28 29 27 36 22 20 19 19 20 19 24 23 19 19 17 16 15 15 15 15 16 15 13 13 13 12 11 9 8 5 6 5 5 4 3 2 3 4 4 6 8 10 11 12 13 14 14 14
22 21 24 23 28 47 16 15 16 21 22 19 23 23 21 19 18 18 16 16 18 18 16 15 13 12 12 11 10 8 6 6 5 5 4 2 1 2 3 4 7 8 10 11 13 14 16 17 17
21 19 20 24 23 28 38 11 6 17 15 17 17 18 18 19 19 18 16 18 18 18 17 15 14 13 12 11 10 8 8 6 5 4 3 2 1 1 3 5 7 9 10 11 13 14 16 16 18
26 22 22 27 27 37 32 38 20 6 12 23 24 20 18 20 20 18 17 19 18 18 17 16 15 14 13 12 11 10 9 7 5 4 4 4 3 4 5 7 8 9 11 13 15 16 18 19 19
25 24 25 25 28 36 34 50 23 10 9 19 24 25 25 22 19 19 20 20 19 19 18 17 16 15 14 13 13 11 10 8 7 6 6 6 6 6 7 8 9 10 12 13 14 17 18 20 21
19 20 25 24 30 33 40 38 35 29 13 23 23 23 25 24 23 21 21 20 19 19 19 19 18 17 16 15 14 12 12 10 9 8 8 9 8 8 10 10 12 13 13 15 18 21 23 23 22
39 36 26 31 29 35 42 42 27 45 24 22 25 27 25 24 22 22 22 21 21 21 21 21 21 19 18 16 15 14 13 11 11 10 10 11 11 11 12 13 13 15 16 18 22 25 28 29 28
30 24 22 18 28 31 40 30 33 42 28 26 23 23 25 27 24 24 23 23 23 23 23 23 21 19 18 16 16 15 14 14 13 12 12 12 13 13 14 16 16 17 19 20 23 28 30 32 32
34 23 25 23 25 28 31 40 36 41 41 34 23 24 21 26 27 29 26 25 25 23 24 23 22 20 18 18 17 16 16 15 15 14 14 14 14 15 16 17 19 20 22 24 28 32 34 35 36
38 33 26 16 18 24 24 35 42 45 44 43 39 32 26 27 26 28 27 27 27 26 25 23 22 20 20 18 17 16 17 18 16 15 16 16 16 17 18 20 22 23 24 27 31 36 38 37 36
29 37 33 22 13 15 27 8 43 51 51 48 47 46 35 29 29 30 28 29 29 26 26 25 23 22 20 17 17 18 20 19 18 18 17 18 18 19 21 22 23 25 27 30 35 39 39 39 37
33 32 29 20 29 12 25 14 29 38 53 52 51 50 44 35 33 31 27 28 27 28 27 25 24 22 20 19 20 22 21 19 19 19 20 20 20 21 23 24 25 26 29 34 38 39 38 40 40
26 23 16 22 16 8 28 32 22 36 58 50 49 44 39 34 36 34 29 29 30 31 29 27 24 22 21 21 21 21 18 19 21 21 21 22 22 22 24 26 26 29 32 37 40 40 40 41 42
32 18 5 4 4 8 21 22 32 33 37 39 45 41 37 41 39 36 35 33 34 33 28 27 26 23 22 21 21 20 21 22 22 22 23 23 24 25 26 27 28 31 36 40 42 41 43 43 43
45 35 12 7 6 5 21 17 33 32 33 33 28 25 26 30 35 39 37 35 34 31 29 28 26 24 22 21 21 22 23 23 22 23 24 24 26 27 28 28 30 35 39 44 43 44 45 45 46
34 29 30 1 8 3 12 14 15 34 31 25 29 32 30 30 32 37 39 35 33 31 29 28 27 25 23 20 21 22 22 22 23 24 24 25 27 29 29 31 34 38 42 45 45 46 47 48 49
31 36 19 12 3 4 7 10 20 23 36 30 29 29 28 29 32 36 38 36 33 31 30 30 28 25 22 21 21 22 22 23 24 24 25 27 29 30 31 34 38 42 45 45 47 48 49 50 51
35 36 18 20 12 2 1 7 12 21 25 31 32 37 35 32 31 33 36 35 33 33 33 31 29 26 22 21 20 22 23 24 25 25 26 28 29 31 33 37 41 44 46 47 49 49 50 52 52
40 30 42 18 10 25 13 7 7 15 24 25 32 34 33 31 30 31 33 33 35 36 34 32 29 25 22 20 21 23 24 24 25 25 27 29 31 33 36 40 43 45 47 48 50 51 52 52 51
Wind_Direction
238 233 231 236 231 226 230 218 211 190 181 183 193 205 184 187 185 221 303 194 213 207 207 203 204 216 245 274 288 301 324 10 11 11 12 357 341 333 328 328 331 331 333 333 333 331 332 331 326
231 231 228 235 227 227 233 220 225 232 199 200 217 219 196 205 206 233 258 223 212 200 205 206 210 223 244 264 265 37 48 37 25 16 0 345 340 341 344 351 356 1 4 5 3 353 349 341 337
228 229 227 227 230 226 232 229 240 207 213 225 226 225 209 212 217 227 246 252 226 204 209 203 207 220 238 244 225 181 100 48 22 2 351 347 348 354 5 15 24 31 30 25 18 13 9 5 5
229 231 226 226 226 224 223 277 247 205 210 220 227 219 217 225 223 230 243 248 222 197 203 199 205 216 227 220 210 189 142 84 3 353 352 350 356 16 29 31 31 33 32 28 25 28 28 23 20
234 229 227 228 231 225 213 253 232 226 228 229 225 218 220 216 213 222 236 233 228 209 203 206 211 218 219 212 202 191 174 344 348 349 354 356 11 31 47 47 43 41 37 31 29 29 29 28 22
230 227 225 224 230 222 212 236 232 215 228 234 229 217 219 212 216 219 234 225 219 201 203 208 212 222 215 207 199 199 189 285 345 346 351 6 23 37 44 45 41 37 32 33 35 33 27 24 24
235 228 226 226 233 228 237 221 232 227 229 232 227 216 220 213 211 223 236 220 201 206 212 208 218 215 210 204 202 207 206 300 340 348 353 13 31 42 40 39 37 34 33 31 32 32 28 25 19
234 223 229 219 222 230 231 206 223 226 221 210 222 219 220 222 220 227 236 231 214 204 212 214 215 210 207 203 206 210 228 300 335 350 2 21 34 36 35 34 33 29 27 27 27 21 14 7 6
227 220 222 216 210 214 184 192 189 196 215 223 227 218 215 220 219 227 226 229 233 212 206 218 213 209 207 206 209 215 244 300 334 346 1 20 27 31 31 30 25 24 21 15 11 3 2 360 355
215 227 232 223 169 185 176 185 186 193 208 222 227 213 206 215 220 223 225 227 227 227 213 204 214 210 207 209 212 224 250 286 324 335 352 15 31 33 32 32 26 20 11 8 2 357 356 354 351
227 219 227 220 207 188 185 184 180 197 202 222 233 220 218 219 217 215 220 223 219 226 226 217 201 214 207 213 217 230 249 280 298 318 345 17 36 49 48 35 27 21 20 14 9 4 2 359 356
236 240 228 232 234 190 183 184 185 191 210 218 220 221 222 227 226 225 225 222 216 225 230 227 213 213 213 218 224 233 249 276 300 318 338 5 53 71 57 33 18 16 13 14 12 7 4 2 358
240 236 238 228 228 219 174 163 204 191 201 206 216 221 220 222 223 226 224 212 214 226 229 223 216 213 217 221 230 243 250 269 291 312 326 345 52 55 26 10 6 6 6 7 7 5 1 357 353
226 245 244 228 243 231 210 172 260 191 205 214 217 214 218 221 228 233 230 220 221 228 224 222 218 214 221 224 234 240 251 262 280 300 301 269 243 314 343 350 349 351 351 352 356 356 352 351 346
229 240 243 230 226 227 227 236 236 170 217 222 224 226 222 223 229 234 228 221 222 228 222 221 223 221 226 232 234 242 247 255 268 275 265 246 251 287 321 334 343 347 345 346 348 350 348 346 341
231 225 235 233 222 226 215 226 220 231 230 229 230 229 229 229 232 233 226 222 222 227 225 221 223 226 229 232 236 243 248 252 257 253 247 242 252 278 308 322 332 333 335 336 340 341 342 341 337
226 227 226 224 221 223 219 227 229 216 245 242 226 227 227 226 228 229 227 225 224 227 226 222 223 226 230 231 239 241 240 243 248 247 246 248 260 282 296 308 314 317 322 328 332 337 339 340 337
215 214 215 224 218 218 221 229 225 218 229 246 229 230 229 230 230 233 232 229 225 226 224 220 223 225 231 233 240 240 242 239 242 242 247 255 266 281 293 300 305 310 317 326 333 337 337 335 333
226 233 233 236 235 224 222 227 193 196 202 234 226 234 232 234 232 231 229 227 225 226 226 223 226 228 232 236 241 242 239 237 240 242 248 257 268 279 290 298 303 309 314 318 327 332 334 331 327
226 228 234 242 254 240 235 229 217 207 213 222 232 241 236 237 235 234 231 225 225 226 228 226 225 229 233 237 240 238 236 237 239 245 252 257 269 280 290 298 304 309 313 319 323 326 329 329 326
224 223 223 230 250 235 239 240 222 211 213 214 230 243 245 240 243 241 234 227 224 224 228 227 225 230 236 240 246 244 237 238 244 247 253 260 269 281 291 298 303 307 312 317 322 325 326 325 325
224 221 225 234 238 219 210 250 234 222 220 217 217 229 244 248 241 239 234 229 225 223 225 225 224 229 238 243 244 234 234 237 242 247 252 262 274 284 291 297 302 307 312 317 323 325 325 324 323
225 224 222 237 246 258 217 229 242 229 217 219 220 221 229 243 243 239 235 228 225 224 224 224 225 232 239 241 239 236 237 239 242 249 256 264 274 284 291 297 302 306 311 318 324 323 321 320 320
223 223 238 212 216 225 220 205 239 214 215 218 222 233 234 241 243 236 232 227 222 222 221 220 225 231 238 244 243 243 240 239 244 250 258 268 276 283 290 295 299 305 312 319 321 319 318 319 319
212 186 205 108 172 235 232 213 226 216 214 215 214 224 230 235 236 235 229 223 220 220 220 220 225 231 238 244 244 239 238 241 247 254 261 269 277 284 287 293 300 307 313 317 317 317 318 318 317
202 189 175 175 190 224 214 222 224 223 209 209 214 217 229 231 232 231 229 225 225 221 219 220 225 231 240 242 239 237 237 243 251 257 265 273 280 285 291 297 301 306 311 315 315 316 317 316 316
203 199 204 320 228 187 197 227 235 227 222 197 207 211 221 229 232 231 227 224 225 220 219 220 225 231 238 238 237 238 241 247 252 260 269 276 282 286 292 296 300 306 310 312 313 316 315 315 316
220 222 207 216 229 205 238 206 218 207 209 213 209 215 221 227 227 230 229 225 221 218 217 219 223 231 235 236 236 238 242 248 256 264 271 277 282 287 291 295 300 305 309 312 314 314 314 314 316
197 191 200 219 220 202 220 232 215 219 219 217 213 219 226 231 229 229 226 222 218 217 216 219 224 231 236 237 236 240 245 251 258 265 272 277 283 287 291 296 301 305 309 312 312 312 313 314 314
218 217 199 182 198 224 252 293 220 199 212 215 221 224 229 229 228 229 225 220 215 215 216 220 224 229 233 232 235 241 248 254 261 268 275 280 284 289 294 298 302 306 310 311 311 311 313 313 313